Simultaneous Nadir Overpasses (SNOs) Predictions

Prediction of SNOs between AQUA and METOP-C Satellite Orbit:

Table of predicted SNOs for the next 14.0 days since TLE Epoch: 6/14/2025
Index Date (AQUA) Time (AQUA) Lat,Lon (AQUA) SZA (AQUA ) Date (METOP-C) Time (METOP-C) Lat,Lon (METOP-C) SZA (METOP-C ) Distance(km) Time Diff (sec)
1 06/15/2025 05:23:57 76.64, 101.72 53.26 06/15/2025 05:23:37 76.65, 101.82 53.28 2.92 20
2 06/15/2025 06:13:15 -76.67, -90.69 126.72 06/15/2025 06:14:18 -76.66, -90.82 126.72 3.15 63
3 06/17/2025 17:22:51 -76.64, 102.07 126.83 06/17/2025 17:21:54 -76.62, 102.13 126.85 2.53 57
4 06/17/2025 18:12:10 76.66, -90.34 53.20 06/17/2025 18:12:33 76.68, -90.32 53.22 1.62 23
5 06/20/2025 06:11:03 -76.64, -89.92 126.86 06/20/2025 06:10:50 -76.64, -90.02 126.86 2.63 13
6 06/20/2025 07:00:23 76.72, 77.48 53.22 06/20/2025 07:01:29 76.69, 77.51 53.20 2.93 66
7 06/22/2025 18:09:56 76.62, -89.50 53.13 06/22/2025 18:09:05 76.63, -89.61 53.14 3.04 51
8 06/22/2025 18:59:15 -76.68, 77.96 126.82 06/22/2025 18:59:45 -76.70, 77.98 126.79 2.18 30
9 06/25/2025 06:58:08 76.70, 78.24 53.26 06/25/2025 06:58:00 76.68, 78.36 53.24 3.44 8
10 06/25/2025 07:47:27 -76.76,-114.29 126.69 06/25/2025 07:48:40 -76.75,-114.04 126.69 6.24 73
11 06/27/2025 18:56:58 -76.68, 78.68 126.68 06/27/2025 18:56:15 -76.69, 78.81 126.67 3.68 43



Historial Predications of SNOs between AQUA and METOP-C
